• In Belarus
  • List of Countries
  • For 7 days
  • Water Temperature
  • Weather Map
  • Weather Widgets
  • user-avatar
    Login

    Hourly Weather Thimphu

    Today, 3 June, Wednesday

    Time Temperature Precipitation Wind Pressure Humidity
    00:00 +9°C° 0 mm 1 mps 523 mmHg 97%
    01:00 +9°C° 0.1 mm 1 mps 522 mmHg 96%
    02:00 +9°C° 0.1 mm 1 mps 522 mmHg 95%
    03:00 +9°C° 0.1 mm 1 mps 522 mmHg 94%
    04:00 +9°C° 0 mm 1 mps 522 mmHg 93%
    05:00 +9°C° 0 mm 1 mps 522 mmHg 92%
    06:00 +9°C° 0 mm 1 mps 523 mmHg 91%
    07:00 +11°C° 0 mm 1 mps 524 mmHg 83%
    08:00 +13°C° 0 mm 1 mps 526 mmHg 74%
    09:00 +15°C° 0 mm 1 mps 527 mmHg 66%
    10:00 +16°C° 0.1 mm 2 mps 527 mmHg 64%
    11:00 +16°C° 0.1 mm 2 mps 527 mmHg 62%
    12:00 +17°C° 0.1 mm 2 mps 527 mmHg 60%
    13:00 +17°C° 0.4 mm 2 mps 526 mmHg 64%
    14:00 +16°C° 0.4 mm 2 mps 526 mmHg 69%
    15:00 +16°C° 0.4 mm 3 mps 525 mmHg 73%
    16:00 +15°C° 0.4 mm 2 mps 524 mmHg 78%
    17:00 +13°C° 0.4 mm 2 mps 524 mmHg 84%
    18:00 +12°C° 0.4 mm 2 mps 523 mmHg 89%
    19:00 +12°C° 0.1 mm 1 mps 523 mmHg 91%
    20:00 +11°C° 0.1 mm 1 mps 523 mmHg 94%
    21:00 +10°C° 0.1 mm 1 mps 523 mmHg 96%
    22:00 +10°C° 0.1 mm 1 mps 523 mmHg 96%
    23:00 +10°C° 0.1 mm 1 mps 523 mmHg 96%

    Tomorrow, 4 June, Thursday

    Time Temperature Precipitation Wind Pressure Humidity
    00:00 +10°C° 0.1 mm 1 mps 523 mmHg 95%
    01:00 +10°C° 0 mm 1 mps 523 mmHg 95%
    02:00 +9°C° 0 mm 1 mps 522 mmHg 95%
    03:00 +8°C° 0 mm 0 mps 522 mmHg 95%
    04:00 +8°C° 0 mm 0 mps 522 mmHg 94%
    05:00 +8°C° 0 mm 0 mps 522 mmHg 93%
    06:00 +8°C° 0 mm 0 mps 522 mmHg 93%
    07:00 +11°C° 0.1 mm 1 mps 524 mmHg 84%
    08:00 +13°C° 0.1 mm 1 mps 525 mmHg 75%
    09:00 +15°C° 0.1 mm 1 mps 527 mmHg 67%
    10:00 +16°C° 0.2 mm 2 mps 527 mmHg 64%
    11:00 +17°C° 0.2 mm 2 mps 527 mmHg 61%
    12:00 +18°C° 0.2 mm 2 mps 527 mmHg 59%
    13:00 +17°C° 0.4 mm 2 mps 527 mmHg 65%
    14:00 +16°C° 0.4 mm 2 mps 526 mmHg 70%
    15:00 +16°C° 0.4 mm 3 mps 525 mmHg 76%
    16:00 +15°C° 0.4 mm 2 mps 525 mmHg 81%
    17:00 +14°C° 0.4 mm 2 mps 524 mmHg 86%
    18:00 +12°C° 0.4 mm 1 mps 524 mmHg 91%
    19:00 +12°C° 0.1 mm 1 mps 524 mmHg 92%
    20:00 +11°C° 0.1 mm 1 mps 523 mmHg 94%
    21:00 +10°C° 0.1 mm 1 mps 523 mmHg 95%
    22:00 +10°C° 0.1 mm 1 mps 523 mmHg 95%
    23:00 +10°C° 0.1 mm 1 mps 523 mmHg 94%

    Day after tomorrow, 5 June, Friday

    Time Temperature Precipitation Wind Pressure Humidity
    00:00 +10°C° 0.1 mm 1 mps 523 mmHg 94%
    01:00 +10°C° 0.1 mm 1 mps 523 mmHg 95%
    02:00 +10°C° 0.1 mm 1 mps 523 mmHg 96%
    03:00 +8°C° 0.1 mm 0 mps 523 mmHg 97%
    04:00 +9°C° 0.1 mm 0 mps 523 mmHg 96%
    05:00 +9°C° 0.1 mm 0 mps 523 mmHg 95%
    06:00 +9°C° 0.1 mm 0 mps 523 mmHg 94%
    07:00 +10°C° 0.1 mm 0 mps 524 mmHg 91%
    08:00 +12°C° 0.1 mm 1 mps 525 mmHg 88%
    09:00 +13°C° 0.1 mm 1 mps 526 mmHg 84%
    10:00 +14°C° 0.3 mm 1 mps 526 mmHg 82%
    11:00 +15°C° 0.3 mm 1 mps 526 mmHg 80%
    12:00 +16°C° 0.3 mm 1 mps 526 mmHg 78%
    13:00 +16°C° 0.6 mm 1 mps 526 mmHg 79%
    14:00 +16°C° 0.6 mm 2 mps 526 mmHg 79%
    15:00 +16°C° 0.6 mm 2 mps 525 mmHg 80%
    16:00 +15°C° 0.5 mm 2 mps 525 mmHg 84%
    17:00 +15°C° 0.5 mm 1 mps 524 mmHg 88%
    18:00 +14°C° 0.5 mm 1 mps 524 mmHg 92%
    19:00 +13°C° 0.2 mm 1 mps 523 mmHg 93%
    20:00 +12°C° 0.2 mm 1 mps 523 mmHg 95%
    21:00 +11°C° 0.2 mm 1 mps 523 mmHg 96%
    22:00 +11°C° 0.1 mm 1 mps 523 mmHg 95%
    23:00 +11°C° 0.1 mm 1 mps 523 mmHg 95%

    6 June, Saturday

    Time Temperature Precipitation Wind Pressure Humidity
    00:00 +10°C° 0.1 mm 1 mps 523 mmHg 94%
    01:00 +10°C° 0 mm 1 mps 523 mmHg 93%
    02:00 +10°C° 0 mm 1 mps 523 mmHg 92%
    03:00 +10°C° 0 mm 1 mps 523 mmHg 91%
    04:00 +10°C° 0 mm 1 mps 523 mmHg 90%
    05:00 +10°C° 0 mm 1 mps 523 mmHg 89%
    06:00 +10°C° 0 mm 1 mps 523 mmHg 89%
    07:00 +13°C° 0 mm 1 mps 525 mmHg 82%
    08:00 +15°C° 0 mm 1 mps 526 mmHg 75%
    09:00 +18°C° 0 mm 1 mps 527 mmHg 68%
    10:00 +17°C° 0.4 mm 2 mps 527 mmHg 69%
    11:00 +18°C° 0.4 mm 2 mps 527 mmHg 70%
    12:00 +18°C° 0.4 mm 2 mps 527 mmHg 71%
    13:00 +18°C° 0.8 mm 2 mps 527 mmHg 72%
    14:00 +18°C° 0.8 mm 2 mps 526 mmHg 73%
    15:00 +18°C° 0.8 mm 2 mps 526 mmHg 74%
    16:00 +17°C° 0.7 mm 2 mps 525 mmHg 79%
    17:00 +16°C° 0.7 mm 2 mps 524 mmHg 83%
    18:00 +15°C° 0.7 mm 1 mps 524 mmHg 88%
    19:00 +14°C° 0.4 mm 1 mps 524 mmHg 91%
    20:00 +13°C° 0.4 mm 1 mps 524 mmHg 94%
    21:00 +12°C° 0.4 mm 1 mps 523 mmHg 97%
    22:00 +12°C° 0.1 mm 1 mps 523 mmHg 96%
    23:00 +12°C° 0.1 mm 1 mps 523 mmHg 96%

    7 June, Sunday

    Time Temperature Precipitation Wind Pressure Humidity
    00:00 +12°C° 0.1 mm 1 mps 523 mmHg 95%
    01:00 +11°C° 0 mm 1 mps 523 mmHg 95%
    02:00 +10°C° 0 mm 0 mps 523 mmHg 95%
    03:00 +9°C° 0 mm 0 mps 522 mmHg 95%
    04:00 +10°C° 0 mm 0 mps 523 mmHg 93%
    05:00 +10°C° 0 mm 0 mps 523 mmHg 91%
    06:00 +11°C° 0 mm 0 mps 523 mmHg 89%
    07:00 +14°C° 0 mm 1 mps 525 mmHg 82%
    08:00 +16°C° 0 mm 1 mps 526 mmHg 75%
    09:00 +18°C° 0 mm 2 mps 527 mmHg 68%
    10:00 +18°C° 0.4 mm 2 mps 527 mmHg 69%
    11:00 +18°C° 0.4 mm 2 mps 527 mmHg 70%
    12:00 +19°C° 0.4 mm 2 mps 527 mmHg 70%
    13:00 +19°C° 0.8 mm 2 mps 526 mmHg 70%
    14:00 +19°C° 0.8 mm 2 mps 526 mmHg 70%
    15:00 +19°C° 0.8 mm 2 mps 526 mmHg 70%
    16:00 +18°C° 0.6 mm 2 mps 525 mmHg 75%
    17:00 +17°C° 0.6 mm 2 mps 524 mmHg 81%
    18:00 +15°C° 0.6 mm 2 mps 523 mmHg 86%
    19:00 +14°C° 0.2 mm 1 mps 523 mmHg 89%
    20:00 +13°C° 0.2 mm 1 mps 523 mmHg 93%
    21:00 +12°C° 0.2 mm 1 mps 523 mmHg 96%
    22:00 +12°C° 0.1 mm 1 mps 523 mmHg 96%
    23:00 +11°C° 0.1 mm 1 mps 522 mmHg 95%

    8 June, Monday

    Time Temperature Precipitation Wind Pressure Humidity
    00:00 +11°C° 0.1 mm 1 mps 522 mmHg 94%
    01:00 +11°C° 0 mm 1 mps 522 mmHg 94%
    02:00 +10°C° 0 mm 1 mps 521 mmHg 93%
    03:00 +10°C° 0 mm 1 mps 521 mmHg 93%
    04:00 +10°C° 0 mm 1 mps 522 mmHg 91%
    05:00 +11°C° 0 mm 1 mps 522 mmHg 89%
    06:00 +11°C° 0 mm 1 mps 523 mmHg 88%
    07:00 +14°C° 0 mm 1 mps 524 mmHg 80%
    08:00 +16°C° 0 mm 1 mps 525 mmHg 72%
    09:00 +19°C° 0 mm 1 mps 527 mmHg 64%
    10:00 +19°C° 0.2 mm 2 mps 527 mmHg 63%
    11:00 +20°C° 0.2 mm 2 mps 527 mmHg 62%
    12:00 +20°C° 0.2 mm 2 mps 527 mmHg 61%
    13:00 +20°C° 0.8 mm 2 mps 526 mmHg 64%
    14:00 +20°C° 0.8 mm 2 mps 526 mmHg 67%
    15:00 +19°C° 0.8 mm 2 mps 525 mmHg 71%
    16:00 +18°C° 0.7 mm 2 mps 524 mmHg 76%
    17:00 +17°C° 0.7 mm 2 mps 524 mmHg 82%
    18:00 +16°C° 0.7 mm 2 mps 523 mmHg 87%
    19:00 +15°C° 0.2 mm 1 mps 523 mmHg 90%
    20:00 +14°C° 0.2 mm 1 mps 523 mmHg 93%
    21:00 +13°C° 0.2 mm 1 mps 523 mmHg 96%
    22:00 +12°C° 0.1 mm 1 mps 523 mmHg 95%
    23:00 +12°C° 0.1 mm 1 mps 523 mmHg 95%
    Show more